Saranac Lake, NY

2:49 PM EST on January 19, 2018 (GMT -0500)
Adirondack Regional

Weather History for KSLK - March, 2015

Change the Weather History Date:

Thursday, March 5, 2015

  Actual Average Record
Temperature  
Mean Temperature -1 °F 20 °F  
Max Temperature 19 °F 33 °F 64 °F (1976)
Min Temperature -21 °F 7 °F -21 °F (2015)
Degree Days  
Heating Degree Days 66 45  
Month to date heating degree days 284 230  
Since 1 July heating degree days 7067 6935  
Cooling Degree Days 0 0  
Month to date cooling degree days 0 0  
Year to date cooling degree days 0 0  
Moisture  
Dew Point -6 °F    
Average Humidity 60    
Maximum Humidity 81    
Minimum Humidity 38    
Precipitation  
Precipitation T in 0.05 in 1.68 in (1985)
Month to date precipitation 0.06 0.25  
Year to date precipitation 0.93 3.99  
Sea Level Pressure  
Sea Level Pressure 30.13 in    
Wind  
Wind Speed 5 mph (NW)    
Max Wind Speed 20 mph    
Max Gust Speed 26 mph    
Visibility 8 miles    
Events Snow    
T = Trace of Precipitation, MM = Missing Value Source: NWS Daily Summary

Daily Weather History Graph

Daily Weather History Graph

Search for Another Location

Airport or City:

Trip Planner

Search our weather history database for the weather conditions in past years. The results will help you decide how hot, cold, wet, or windy it might be!

Date:

Astronomy

Mar. 05, 2015 Rise Set
Actual Time 6:27 AM EST 5:49 PM EST
Civil Twilight 5:58 AM EST 6:18 PM EST
Nautical Twilight 5:25 AM EST 6:52 PM EST
Astronomical Twilight 4:51 AM EST 7:26 PM EST
Moon 6:01 PM EST (3/5) 6:11 AM EST (3/5)
Length of Visible Light 12h 20m
Length of Day
11h 22m
Full, 100% of the Moon is Illuminated
Mar 5
Full
Mar 5
Full
Mar 13
Last Quarter
Mar 20
New
Mar 27
First Quarter

Hourly Weather History & Observations

Time (EST) Temp. Windchill Dew Point Humidity Pressure Visibility Wind Dir Wind Speed Gust Speed Precip Events Conditions
12:51 AM 18.0 °F 6.1 °F 3.0 °F 52% 29.91 in 10.0 mi West 10.4 mph 18.4 mph N/A   Overcast
1:51 AM 17.1 °F 8.7 °F 1.9 °F 52% 29.93 in 10.0 mi Variable 5.8 mph - N/A   Overcast
2:51 AM 15.1 °F 7.7 °F 1.9 °F 56% 29.94 in 10.0 mi Variable 4.6 mph - N/A   Mostly Cloudy
3:51 AM 12.9 °F 3.8 °F -0.0 °F 56% 29.97 in 10.0 mi West 5.8 mph - N/A   Overcast
4:51 AM 12.0 °F 2.7 °F -0.0 °F 59% 30.01 in 10.0 mi Variable 5.8 mph - N/A   Mostly Cloudy
5:51 AM 10.0 °F -0.9 °F 1.0 °F 67% 30.05 in 10.0 mi NW 6.9 mph - N/A   Overcast
6:28 AM 9.0 °F -0.9 °F 3.0 °F 77% 29.99 in 2.5 mi Variable 5.8 mph - 0.00 in Snow Light Snow
6:48 AM 8.6 °F -1.3 °F 3.2 °F 79% 29.99 in 1.2 mi Variable 5.8 mph - 0.00 in Snow Light Snow
6:51 AM 8.1 °F -0.5 °F 3.0 °F 80% 30.07 in 1.2 mi Variable 4.6 mph - 0.00 in Snow Light Snow
7:18 AM 8.1 °F -4.3 °F 1.9 °F 76% 30.01 in 3.0 mi WNW 8.1 mph - 0.00 in   Haze
7:42 AM 8.1 °F -2.0 °F 1.0 °F 73% 30.02 in 4.0 mi Variable 5.8 mph - 0.00 in   Haze
7:51 AM 8.1 °F -4.3 °F 1.0 °F 73% 30.13 in 4.0 mi NW 8.1 mph - 0.00 in   Haze
8:38 AM 7.0 °F -4.5 °F -0.0 °F 73% 30.04 in 2.0 mi North 6.9 mph - 0.00 in Snow Light Snow
8:51 AM 7.0 °F -3.3 °F -0.0 °F 73% 30.12 in 4.0 mi Variable 5.8 mph - 0.00 in   Haze
9:34 AM 7.0 °F -1.7 °F -4.0 °F 61% 30.07 in 10.0 mi Variable 4.6 mph - N/A   Scattered Clouds
9:51 AM 7.0 °F -4.5 °F -4.0 °F 61% 30.19 in 10.0 mi North 6.9 mph - N/A   Clear
10:51 AM 7.0 °F -4.5 °F -5.1 °F 58% 30.19 in 10.0 mi NNW 6.9 mph - N/A   Clear
11:51 AM 7.0 °F -5.7 °F -7.1 °F 53% 30.17 in 10.0 mi WNW 8.1 mph - N/A   Clear
12:51 PM 8.1 °F -2.0 °F -8.0 °F 48% 30.17 in 10.0 mi Variable 5.8 mph - N/A   Clear
1:51 PM 10.0 °F -1.9 °F -8.0 °F 44% 30.15 in 10.0 mi West 8.1 mph - N/A   Clear
2:51 PM 10.9 °F 1.4 °F -9.9 °F 39% 30.18 in 10.0 mi Variable 5.8 mph - N/A   Clear
3:51 PM 10.0 °F 0.4 °F -11.9 °F 37% 30.18 in 10.0 mi Variable 5.8 mph - N/A   Clear
4:51 PM 10.0 °F 0.4 °F -11.9 °F 37% 30.19 in 10.0 mi Variable 5.8 mph - N/A   Clear
5:51 PM 6.1 °F -2.8 °F -13.0 °F 41% 30.23 in 10.0 mi Variable 4.6 mph - N/A   Clear
6:51 PM 1.9 °F - -13.0 °F 50% 30.27 in 10.0 mi Calm Calm - N/A   Clear
7:51 PM -7.1 °F - -15.0 °F 68% 30.31 in 10.0 mi Calm Calm - N/A   Clear
8:51 PM -11.0 °F - -17.0 °F 75% 30.34 in 10.0 mi Calm Calm - N/A   Clear
9:51 PM -15.0 °F - -18.9 °F 82% 30.38 in 10.0 mi Calm Calm - N/A   Clear
10:51 PM -18.9 °F - -24.0 °F 78% 30.40 in 10.0 mi Calm Calm - N/A   Clear
11:51 PM -20.9 °F - -25.1 °F 81% 30.40 in 10.0 mi Calm Calm - N/A   Clear